DW6659 Weather Reports


Display with metric or nautical units.
time (UTC)temp
F
wind
direction
speed
MPH
gust
MPH
rain 1hr
in
rain 24hr
in
rain mn
in
humidity
%
barometer
mb
20260507192359 63 162 2.0 6.0 0.00 0.01 0.01 74 1019.7
20260507191858 62 116 2.0 6.0 0.00 0.01 0.01 73 1019.8
20260507191358 62 80 1.0 4.0 0.00 0.01 0.01 72 1019.8
20260507190358 61 110 2.0 5.0 0.00 0.01 0.01 72 1020.0
20260507184859 60 116 3.0 6.0 0.00 0.01 0.01 75 1020.2
20260507184359 60 144 2.0 5.0 0.00 0.01 0.01 74 1020.2
20260507183358 60 32 1.0 3.0 0.00 0.01 0.01 77 1020.2
20260507182858 59 13 1.0 3.0 0.00 0.01 0.01 77 1020.3
20260507182358 58 47 2.0 5.0 0.00 0.01 0.01 79 1020.3
20260507181858 58 39 2.0 5.0 0.00 0.01 0.01 79 1020.4
20260507175858 56 29 2.0 5.0 0.00 0.01 0.01 79 1020.6
20260507174859 56 84 2.0 4.0 0.00 0.01 0.01 79 1020.6
20260507174358 56 95 2.0 4.0 0.00 0.01 0.01 80 1020.7
20260507173859 56 67 3.0 6.0 0.00 0.01 0.01 80 1020.7
20260507172859 55 63 2.0 6.0 0.00 0.01 0.01 81 1020.8
20260507172357 55 46 2.0 6.0 0.00 0.01 0.01 80 1020.8
20260507171858 55 4 1.0 3.0 0.00 0.01 0.01 81 1020.7
20260507171358 54 17 2.0 6.0 0.00 0.01 0.01 82 1020.8
20260507170859 54 26 3.0 6.0 0.00 0.01 0.01 81 1020.8
20260507170358 54 26 4.0 7.0 0.00 0.01 0.01 82 1020.8
20260507165859 53 16 4.0 7.0 0.00 0.01 0.01 83 1020.8
20260507164858 53 350 4.0 7.0 0.00 0.01 0.01 82 1020.7
20260507164359 53 2 4.0 7.0 0.00 0.01 0.01 82 1020.8
20260507163859 53 10 3.0 7.0 0.00 0.01 0.01 81 1020.8
20260507163358 53 16 3.0 4.0 0.00 0.01 0.01 82 1020.7
20260507162859 53 4 4.0 6.0 0.00 0.01 0.01 83 1020.7
20260507162359 53 7 4.0 7.0 0.00 0.01 0.01 82 1020.7
20260507161859 53 9 4.0 7.0 0.00 0.01 0.01 82 1020.7
20260507160858 52 8 5.0 8.0 0.00 0.01 0.01 83 1020.6
20260507160400 52 16 4.0 8.0 0.00 0.01 0.01 83 1020.6
20260507155858 52 25 3.0 7.0 0.00 0.01 0.01 83 1020.5
20260507154858 52 356 4.0 7.0 0.00 0.01 0.01 83 1020.6
20260507154359 52 10 4.0 7.0 0.00 0.01 0.01 83 1020.6
20260507153859 52 18 3.0 6.0 0.00 0.01 0.01 83 1020.7
20260507153358 52 22 3.0 6.0 0.00 0.01 0.01 84 1020.7
20260507152858 52 20 3.0 6.0 0.00 0.01 0.01 84 1020.7
20260507152358 51 355 3.0 7.0 0.00 0.01 0.01 84 1020.7
20260507151859 51 345 4.0 7.0 0.00 0.01 0.01 84 1020.8
20260507151358 51 1 3.0 7.0 0.00 0.01 0.01 84 1020.8
20260507150859 51 7 3.0 7.0 0.00 0.01 0.01 84 1020.8
20260507150358 51 5 4.0 7.0 0.00 0.01 0.01 85 1020.8
20260507145859 50 3 4.0 8.0 0.00 0.01 0.01 85 1020.8
20260507144900 50 357 5.0 8.0 0.00 0.01 0.01 85 1020.8
20260507144359 50 1 5.0 9.0 0.00 0.01 0.01 85 1020.8
20260507143858 50 359 5.0 9.0 0.00 0.01 0.01 85 1020.8
20260507143359 50 9 4.0 8.0 0.00 0.01 0.01 85 1020.8
20260507142859 50 13 4.0 7.0 0.00 0.01 0.01 86 1020.7
20260507142358 50 30 4.0 8.0 0.00 0.01 0.01 86 1020.7
20260507141858 50 52 4.0 8.0 0.00 0.01 0.01 87 1020.7
20260507140858 50 20 4.0 8.0 0.00 0.01 0.01 87 1020.6
20260507140359 50 16 4.0 8.0 0.00 0.01 0.01 87 1020.5
20260507134859 50 25 3.0 4.0 0.00 0.01 0.01 87 1020.3
20260507134359 50 35 3.0 5.0 0.00 0.01 0.01 87 1020.3
20260507133859 50 34 3.0 5.0 0.00 0.01 0.01 87 1020.3
20260507132359 50 35 3.0 5.0 0.00 0.01 0.01 86 1020.4
20260507131859 50 17 3.0 5.0 0.00 0.01 0.01 87 1020.5
20260507130858 50 15 3.0 5.0 0.00 0.01 0.01 86 1020.5
20260507124858 50 356 2.0 4.0 0.00 0.01 0.01 87 1020.5
20260507124358 51 20 1.0 3.0 0.00 0.01 0.01 87 1020.5
20260507123858 51 23 1.0 3.0 0.00 0.01 0.01 87 1020.5
20260507123359 51 20 1.0 3.0 0.00 0.01 0.01 87 1020.5
20260507122859 51 13 1.0 3.0 0.00 0.01 0.01 87 1020.5
20260507121859 51 341 2.0 3.0 0.00 0.01 0.01 88 1020.5
20260507120859 51 19 2.0 4.0 0.00 0.01 0.01 88 1020.5
20260507120359 51 21 3.0 4.0 0.00 0.01 0.01 88 1020.5
20260507115859 51 30 3.0 5.0 0.00 0.01 0.01 88 1020.6
20260507115359 51 39 3.0 5.0 0.00 0.01 0.01 88 1020.6
20260507114858 51 34 2.0 4.0 0.00 0.01 0.01 88 1020.6
20260507114359 51 36 2.0 4.0 0.00 0.01 0.01 88 1020.7
20260507112859 51 20 2.0 6.0 0.00 0.01 0.01 88 1020.8
20260507112400 51 23 2.0 6.0 0.00 0.01 0.01 88 1020.9
20260507111858 51 12 2.0 4.0 0.00 0.01 0.01 89 1020.8
20260507111359 51 20 3.0 4.0 0.00 0.01 0.01 89 1020.9
20260507110859 51 22 2.0 4.0 0.00 0.01 0.01 88 1020.9
20260507105859 51 11 3.0 6.0 0.00 0.01 0.01 88 1020.9
20260507104859 52 20 3.0 5.0 0.00 0.01 0.01 88 1021.0
20260507103859 52 40 3.0 7.0 0.00 0.01 0.01 88 1020.9
20260507103359 52 40 2.0 6.0 0.00 0.01 0.01 88 1021.0
20260507102859 52 27 2.0 3.0 0.00 0.01 0.01 88 1021.0
20260507102359 52 18 2.0 3.0 0.00 0.01 0.01 88 1021.1
20260507101859 52 6 1.0 3.0 0.00 0.01 0.01 88 1021.1
20260507101400 52 0 0.0 2.0 0.00 0.01 0.01 89 1021.1
20260507100859 52 33 1.0 2.0 0.00 0.01 0.01 89 1021.1
20260507100358 52 32 2.0 3.0 0.00 0.01 0.01 89 1021.2
20260507095859 52 32 1.0 3.0 0.00 0.01 0.01 88 1021.1
20260507095359 52 17 1.0 4.0 0.00 0.01 0.01 89 1021.1
20260507094359 52 23 1.0 3.0 0.00 0.01 0.01 89 1021.2
20260507093359 52 10 2.0 4.0 0.00 0.01 0.01 88 1021.3
20260507092859 52 7 2.0 4.0 0.00 0.01 0.01 88 1021.3
20260507092359 52 9 1.0 4.0 0.00 0.01 0.01 88 1021.4
20260507091859 52 35 1.0 4.0 0.00 0.01 0.01 88 1021.4
20260507091359 52 33 2.0 4.0 0.00 0.01 0.01 88 1021.5
20260507090859 52 17 1.0 2.0 0.00 0.01 0.01 88 1021.5
20260507090359 52 21 1.0 2.0 0.00 0.01 0.01 88 1021.5
20260507085400 52 14 1.0 3.0 0.01 0.01 0.01 87 1021.6
20260507084859 52 22 1.0 3.0 0.01 0.01 0.01 87 1021.6
20260507084359 53 40 1.0 3.0 0.01 0.01 0.01 87 1021.6
20260507083858 53 56 2.0 4.0 0.01 0.01 0.01 87 1021.6
20260507082859 53 50 2.0 4.0 0.01 0.01 0.01 87 1021.5
20260507082359 53 49 3.0 6.0 0.01 0.01 0.01 86 1021.5
20260507081401 53 48 2.0 6.0 0.01 0.01 0.01 86 1021.5
20260507080858 53 0 0.0 3.0 0.01 0.01 0.01 86 1021.5
20260507080359 53 0 0.0 1.0 0.01 0.01 0.01 86 1021.6
20260507075358 53 0 0.0 1.0 0.00 0.00 0.00 86 1021.5
20260507074859 53 0 0.0 1.0 0.00 0.00 0.00 86 1021.5
20260507074400 54 0 0.0 0.0 0.00 0.00 0.00 86 1021.5
20260507073359 54 0 0.0 0.0 0.00 0.00 0.00 86 1021.5
20260507072859 54 0 0.0 0.0 0.00 0.00 0.00 86 1021.4
20260507072359 54 0 0.0 0.0 0.00 0.00 0.00 86 1021.4
20260507071859 54 0 0.0 0.0 0.00 0.00 0.00 86 1021.4
20260507070400 54 44 2.0 4.0 0.00 0.00 0.00 85 1021.4
20260507065906 54 39 3.0 4.0 0.00 0.00 0.00 86 1021.4
20260507065400 54 28 2.0 4.0 0.00 0.00 0.00 85 1021.4
20260507064358 54 31 2.0 5.0 0.00 0.00 0.00 85 1021.4
20260507063859 54 29 2.0 4.0 0.00 0.00 0.00 85 1021.4
20260507063359 54 35 3.0 4.0 0.00 0.00 0.00 85 1021.4
20260507062858 54 41 3.0 5.0 0.00 0.00 0.00 85 1021.4
20260507062359 55 37 3.0 7.0 0.00 0.00 0.00 85 1021.4
20260507061859 55 28 3.0 7.0 0.00 0.00 0.00 85 1021.4
20260507061359 55 6 3.0 7.0 0.00 0.00 0.00 85 1021.4
20260507060859 55 359 3.0 7.0 0.00 0.00 0.00 84 1021.4
20260507060400 55 4 3.0 6.0 0.00 0.00 0.00 84 1021.4
20260507055859 55 358 3.0 5.0 0.00 0.00 0.00 84 1021.4
20260507055359 55 358 3.0 6.0 0.00 0.00 0.00 84 1021.4
20260507054859 56 7 4.0 7.0 0.00 0.00 0.00 84 1021.4
20260507054359 56 11 4.0 7.0 0.00 0.00 0.00 84 1021.4
20260507053859 56 19 4.0 7.0 0.00 0.00 0.00 84 1021.4
20260507053400 56 18 5.0 10.0 0.00 0.00 0.00 84 1021.4
20260507052859 56 14 5.0 10.0 0.00 0.00 0.00 84 1021.4
20260507051859 57 19 4.0 8.0 0.00 0.00 0.00 84 1021.4
20260507051400 57 20 4.0 7.0 0.00 0.00 0.00 84 1021.4
20260507050900 57 23 3.0 6.0 0.00 0.00 0.00 84 1021.4
20260507050400 57 12 3.0 6.0 0.00 0.00 0.00 84 1021.3
20260507045400 58 17 3.0 6.0 0.00 0.00 0.00 84 1021.3
20260507044859 58 21 2.0 6.0 0.00 0.00 0.00 84 1021.3
20260507043900 59 1 1.0 4.0 0.00 0.00 0.00 83 1021.2
20260507043400 59 0 0.0 2.0 0.00 0.00 0.00 83 1021.2
20260507042900 59 23 1.0 3.0 0.00 0.00 0.00 83 1021.1
20260507042359 59 8 1.0 3.0 0.00 0.00 0.00 82 1021.1
20260507041900 59 0 0.0 0.0 0.00 0.00 0.00 83 1021.0
20260507041400 59 0 0.0 0.0 0.00 0.00 0.00 84 1021.1
20260507040859 60 0 0.0 0.0 0.00 0.00 0.00 85 1020.9
20260507040400 60 0 0.0 0.0 0.00 0.00 0.00 85 1020.9
20260507035859 60 0 0.0 0.0 0.00 0.00 0.00 85 1020.8
20260507035359 60 0 0.0 0.0 0.00 0.00 0.00 86 1020.7
20260507034859 60 0 0.0 0.0 0.00 0.00 0.00 86 1020.6
20260507034359 60 0 0.0 0.0 0.00 0.00 0.00 86 1020.6
20260507032900 61 0 0.0 0.0 0.00 0.00 0.00 84 1020.3
20260507032400 61 0 0.0 1.0 0.00 0.00 0.00 84 1020.2
20260507031900 62 0 0.0 1.0 0.00 0.00 0.00 84 1020.1
20260507031359 62 0 0.0 1.0 0.00 0.00 0.00 83 1020.1
20260507030859 62 0 0.0 3.0 0.00 0.00 0.00 83 1020.0
20260507030401 62 219 1.0 3.0 0.00 0.00 0.00 82 1020.0
20260507025359 62 204 1.0 5.0 0.00 0.00 0.00 82 1019.9
20260507024859 62 220 1.0 5.0 0.00 0.00 0.00 82 1019.8
20260507024400 62 0 0.0 0.0 0.00 0.00 0.00 82 1019.9
20260507022900 63 0 0.0 0.0 0.00 0.00 0.00 79 1019.8
20260507022359 64 0 0.0 1.0 0.00 0.00 0.00 78 1019.8
20260507021400 64 0 0.0 1.0 0.00 0.00 0.00 76 1019.9
20260507020900 65 0 0.0 2.0 0.00 0.00 0.00 75 1019.9
20260507020400 65 0 0.0 2.0 0.00 0.00 0.00 73 1019.9
20260507015359 66 0 0.0 2.0 0.00 0.00 0.00 73 1019.9
20260507014900 66 211 1.0 4.0 0.00 0.00 0.00 72 1019.9
20260507014359 66 221 1.0 4.0 0.00 0.00 0.00 71 1019.9
20260507012900 67 19 1.0 4.0 0.00 0.00 0.00 71 1020.0
20260507011400 67 34 1.0 4.0 0.00 0.00 0.00 69 1020.0
20260507005901 68 265 1.0 4.0 0.00 0.00 0.00 67 1020.1
20260507004900 68 292 1.0 5.0 0.00 0.00 0.00 67 1020.2
20260507004359 68 331 2.0 6.0 0.00 0.00 0.00 69 1020.2
20260507003400 67 137 1.0 4.0 0.00 0.00 0.00 71 1020.2
20260506235901 66 319 1.0 3.0 0.00 0.00 0.00 75 1020.2
20260506235358 66 329 1.0 3.0 0.00 0.00 0.00 73 1020.3
20260506233401 65 320 2.0 4.0 0.00 0.00 0.00 76 1020.3
20260506231859 66 343 2.0 7.0 0.00 0.00 0.00 74 1020.3
20260506231400 67 340 2.0 7.0 0.00 0.00 0.00 73 1020.4
20260506230859 67 329 2.0 5.0 0.00 0.00 0.00 73 1020.5
20260506225401 67 296 1.0 5.0 0.00 0.00 0.00 75 1020.5
20260506224900 66 280 2.0 6.0 0.00 0.00 0.00 75 1020.6
20260506224359 66 217 3.0 6.0 0.00 0.00 0.00 75 1020.6
20260506222900 66 163 2.0 4.0 0.00 0.00 0.00 75 1020.6
20260506220859 64 330 2.0 5.0 0.00 0.00 0.00 78 1020.8
20260506212859 64 273 3.0 9.0 0.00 0.00 0.00 76 1020.9
20260506211400 64 216 2.0 6.0 0.00 0.00 0.00 79 1020.9
20260506210400 63 204 2.0 5.0 0.00 0.00 0.00 83 1020.9
20260506205401 62 359 3.0 6.0 0.00 0.00 0.00 82 1021.3
20260506204400 61 346 2.0 6.0 0.00 0.00 0.00 82 1021.3
20260506203400 61 317 1.0 4.0 0.00 0.00 0.00 83 1021.5
20260506201859 60 330 2.0 6.0 0.00 0.00 0.00 84 1021.5
20260506194900 60 235 2.0 4.0 0.00 0.00 0.00 84 1021.4
20260506194401 60 248 2.0 4.0 0.00 0.00 0.00 83 1021.4
20260506193900 60 244 2.0 5.0 0.00 0.00 0.00 85 1021.4